Location: Barcelona
(41.3830°N, 2.1830°E)
Time: 00:44:36
(UTC+02:00)

ISS - Pass Details

Date: 21 July 2019
Orbit: 409 x 418 km, 51.6° (Epoch: 22 July)

Event Time Altitude Azimuth Distance (km) Brightness Sun altitude
Rises 22:08:33 0° 254° (WSW) 2,349 0.6 -8.6°
Reaches altitude 10° 22:10:45 10° 262° (W) 1,487 -0.3 -8.9°
Maximum altitude 22:13:53 37° 332° (NNW) 662 -2.1 -9.4°
Drops below altitude 10° 22:17:01 10° 42° (NE) 1,488 -1.0 -9.9°
Sets 22:19:12 0° 51° (NE) 2,351 -0.1 -10.2°
